Regional Weather Roundup
Issued by NWS

Home | Current Version | Previous Version | Text Only | Print | Product List | Glossary Off
Versions: 1 2 3 4 5 6 7 8 9 10 11 12 13 14 15 16 17 18 19 20 21 22 23 24 25 26 27 28 29 30 31 32 33 34 35 36 37 38 39 40 41 42 43 44 45 46 47 48 49 50

199
ASUS44 KLIX 151701
RWRLA
LOUISIANA WEATHER ROUNDUP
NATIONAL WEATHER SERVICE NEW ORLEANS LA
1200 PM CDT MON SEP 15 2014

NOTE: "FAIR" INDICATES FEW OR NO CLOUDS BELOW 12,000 FEET WITH NO
      SIGNIFICANT WEATHER AND/OR OBSTRUCTIONS TO VISIBILITY.
      SKY/WX - SKY CONDITION AND SIGNIFICANT WEATHER.
      TMP - AIR TEMPERATURE.    DP   - DEWPOINT TEMPERATURE.
      RH  - RELATIVE HUMIDITY.  PRES - PRESSURE.
      HX  - HEAT INDEX.         WCI  - WIND CHILL INDEX.

*  THESE STATIONS ARE NOT NWS OR FAA STATIONS AND ARE NOT UNDER
   NWS QUALITY CONTROL.

LAZ040-048-061>063-065-066-069-151800-
SOUTHEAST LOUISIANA

CITY           SKY/WX    TMP DP  RH WIND       PRES   REMARKS
N.O. AUDUBON   NOT AVBL
N.O. INTL ARPT PTSUNNY   88  76  67 NE10      30.09F HX  99
N.O. LAKEFRONT MOSUNNY   87  76  69 NE12      30.10S HX  97
N.O. DOWNTOWN* PTSUNNY   88  73  62 NE5       30.10S HX  96
SLIDELL        MOSUNNY   88  75  65 E5        30.10S HX  97
BATON ROUGE    MOSUNNY   88  73  61 NE5       30.10F HX  95
BOOTHVILLE     CLOUDY    86  76  71 CALM      30.10S HX  96
BELLE CHASSE   PTSUNNY   90  72  55 E5        30.09S HX  97
BOGALUSA*      FAIR      91  72  54 E5        30.13S HX  97
GALLIANO*      NOT AVBL
NEW ROADS*     FAIR      86  73  64 NE6       30.11F
GONZALES*      FAIR      87  78  73 NE3       30.09F HX 100
HAMMOND*       NOT AVBL
HOUMA*         PTSUNNY   90  72  55 E7        30.09S HX  96
PORT FOURCHON* PTSUNNY   82  75  78 S10G17    30.13S

$$

LAZ041-044-053-054-151800-
SOUTHWEST LOUISIANA

CITY           SKY/WX    TMP DP  RH WIND       PRES   REMARKS
LAKE CHARLES   SUNNY     87  74  64 E10       30.09F HX  95
LAFAYETTE      MOSUNNY   88  75  65 VRB5      30.10F HX  97
PATTERSON      PTSUNNY   88  79  74 E6        30.12S HX 102
SALT POINT       N/A     90  76  63 VRB6      30.08S HX 101
NEW IBERIA     MOSUNNY   88  76  67 NE7       30.11S HX  99
CHENAULT AIRPK MOSUNNY   88  73  62 E8        30.11S HX  96

$$

LAZ027-028-151800-
CENTRAL LOUISIANA

CITY           SKY/WX    TMP DP  RH WIND       PRES   REMARKS
FORT POLK      MOSUNNY   87  72  60 NE7       30.12F
ALEXANDRIA INT SUNNY     88  73  61 MISG      30.11S HX  95
ALEXANDRIA     SUNNY     88  73  61 CALM      30.12F HX  95

$$

LAZ001-002-151800-
NORTHWEST LOUISIANA

CITY           SKY/WX    TMP DP  RH WIND       PRES   REMARKS
SHREVEPORT     CLOUDY    79  66  64 VRB3      30.14F
BARKSDALE AFB  CLOUDY    80  67  63 E5        30.14F
DTN SHREVEPORT CLOUDY    78  67  68 E3        30.14F

$$

LAZ014-016-151800-
NORTHEAST LOUISIANA

CITY           SKY/WX    TMP DP  RH WIND       PRES   REMARKS
MONROE         PTSUNNY   85  69  58 N5        30.15F
TALLULAH       SUNNY     87  68  52 E3        30.13F

$$




USA.gov is the U.S. government's official web portal to all federal, state and local government web resources and services.